Weather History for Rome Ciampino, Italy

Change the Weather History Date:

Tuesday, April 30, 2013

  Actual Average Record
Temperature  
Mean Temperature 75 °F -  
Max Temperature 86 °F 73 °F 86 °F (2013)
Min Temperature 64 °F 52 °F 46 °F (1997)
Cooling Degree Days 10    
Growing Degree Days 25 (Base 50)    
Moisture  
Dew Point 52 °F    
Average Humidity 50    
Maximum Humidity 64    
Minimum Humidity 33    
Precipitation  
Precipitation 0.00 in 0.06 in - ()
Sea Level Pressure  
Sea Level Pressure 30.01 in    
Wind  
Wind Speed 6 mph ()    
Max Wind Speed 17 mph    
Max Gust Speed -    
Visibility 6.2 miles    
Events      
Averages and records for this station are not official NWS values.
T = Trace of Precipitation, MM = Missing Value Source: Averaged Metar Reports

Daily Weather History Graph

Daily Weather History Graph

Search for Another Location

Airport:

Trip Planner

Search our weather history database for the weather conditions in past years. The results will help you decide how hot, cold, wet, or windy it might be!

Date:

Astronomy

Apr. 30, 2013 Rise Set
Actual Time 6:07 AM CEST 8:07 PM CEST
Civil Twilight 5:37 AM CEST 8:37 PM CEST
Nautical Twilight 5:00 AM CEST 9:14 PM CEST
Astronomical Twilight 4:20 AM CEST 9:54 PM CEST
Moon 12:16 AM CEST (4/30) 10:15 AM CEST (4/30)
Length of Visible Light 15h 00m
Length of Day
13h 59m
Waning Gibbous, 73% of the Moon is Illuminated
Apr 30
Waning Gibbous
May 2
Last Quarter
May 10
New
May 18
First Quarter
May 25
Full

Hourly Weather History & Observations

Time (CEST) Temp. Heat Index Dew Point Humidity Pressure Visibility Wind Dir Wind Speed Gust Speed Precip Events Conditions
12:15 AM 68.0 °F - 46.4 °F 46% 29.98 in - North 1.2 mph - N/A   Clear
12:45 AM 66.2 °F - 44.6 °F 46% 30.01 in - Calm Calm - N/A   Clear
1:15 AM 66.2 °F - 48.2 °F 52% 30.04 in 6.2 mi West 8.1 mph - N/A   Partly Cloudy
1:45 AM 64.4 °F - 50.0 °F 59% 30.04 in 6.2 mi South 2.3 mph - N/A   Partly Cloudy
2:15 AM 64.4 °F - 50.0 °F 59% 30.04 in 6.2 mi ESE 3.5 mph - N/A   Scattered Clouds
2:45 AM 66.2 °F - 51.8 °F 60% 30.04 in 6.2 mi East 6.9 mph - N/A   Scattered Clouds
3:15 AM 66.2 °F - 53.6 °F 64% 30.04 in 6.2 mi East 9.2 mph - N/A   Scattered Clouds
3:45 AM 66.2 °F - 51.8 °F 60% 30.04 in 6.2 mi ENE 4.6 mph - N/A   Scattered Clouds
4:15 AM 66.2 °F - 51.8 °F 60% 30.01 in 6.2 mi NE 6.9 mph - N/A   Scattered Clouds
4:45 AM 66.2 °F - 50.0 °F 56% 30.01 in 6.2 mi NNE 5.8 mph - N/A   Scattered Clouds
5:15 AM 66.2 °F - 48.2 °F 52% 30.01 in 6.2 mi West 3.5 mph - N/A   Scattered Clouds
5:45 AM 66.2 °F - 50.0 °F 56% 30.04 in 6.2 mi Calm Calm - N/A   Scattered Clouds
6:15 AM 66.2 °F - 51.8 °F 60% 30.04 in 6.2 mi NE 3.5 mph - N/A   Scattered Clouds
6:45 AM 66.2 °F - 51.8 °F 60% 30.04 in 6.2 mi WSW 4.6 mph - N/A   Mostly Cloudy
7:15 AM 66.2 °F - 53.6 °F 64% 30.04 in 6.2 mi WSW 5.8 mph - N/A   Mostly Cloudy
7:45 AM 66.2 °F - 53.6 °F 64% 30.04 in 6.2 mi South 3.5 mph - N/A   Mostly Cloudy
8:15 AM 68.0 °F - 55.4 °F 64% 30.04 in 6.2 mi NNE 5.8 mph - N/A   Mostly Cloudy
8:45 AM 68.0 °F - 55.4 °F 64% 30.01 in 6.2 mi North 4.6 mph - N/A   Mostly Cloudy
9:15 AM 71.6 °F - 55.4 °F 57% 30.01 in 6.2 mi NNE 5.8 mph - N/A   Mostly Cloudy
9:45 AM 73.4 °F - 53.6 °F 50% 30.01 in 6.2 mi East 10.4 mph - N/A   Mostly Cloudy
10:15 AM 77.0 °F - 53.6 °F 44% 30.01 in 6.2 mi East 10.4 mph - N/A   Mostly Cloudy
10:45 AM 78.8 °F - 51.8 °F 39% 30.01 in 6.2 mi ESE 11.5 mph - N/A   Mostly Cloudy
11:15 AM 78.8 °F - 53.6 °F 42% 30.01 in 6.2 mi NE 3.5 mph - N/A   Mostly Cloudy
11:45 AM 80.6 °F 80.5 °F 55.4 °F 42% 30.01 in 6.2 mi WNW 3.5 mph - N/A   Scattered Clouds
12:15 PM 84.2 °F 82.8 °F 53.6 °F 35% 30.01 in 6.2 mi WSW 6.9 mph - N/A   Partly Cloudy
12:45 PM 84.2 °F - 51.8 °F 33% 30.01 in 6.2 mi South 13.8 mph - N/A   Partly Cloudy
1:15 PM 86.0 °F 84.2 °F 53.6 °F 33% 30.01 in 6.2 mi SSE 17.3 mph - N/A   Partly Cloudy
1:45 PM 86.0 °F 84.2 °F 53.6 °F 33% 30.01 in 6.2 mi South 13.8 mph - N/A   Partly Cloudy
2:15 PM 86.0 °F 84.2 °F 53.6 °F 33% 30.01 in - SSE 11.5 mph - N/A   Clear
2:45 PM 84.2 °F - 51.8 °F 33% 30.01 in 6.2 mi South 11.5 mph - N/A   Partly Cloudy
3:15 PM 77.0 °F - 59.0 °F 54% 30.04 in 6.2 mi SW 11.5 mph - N/A   Scattered Clouds
3:45 PM 77.0 °F - 60.8 °F 57% 30.04 in 6.2 mi SSW 11.5 mph - N/A   Mostly Cloudy
4:15 PM 78.8 °F - 57.2 °F 47% 30.01 in 6.2 mi South 16.1 mph - N/A   Mostly Cloudy
4:45 PM 78.8 °F - 57.2 °F 47% 30.01 in 6.2 mi South 15.0 mph - N/A   Mostly Cloudy
5:15 PM 75.2 °F - 50.0 °F 41% 30.01 in 6.2 mi South 13.8 mph - N/A   Scattered Clouds
5:45 PM 75.2 °F - 50.0 °F 41% 29.98 in 6.2 mi South 11.5 mph - N/A   Scattered Clouds
6:15 PM 73.4 °F - 50.0 °F 44% 30.01 in 6.2 mi South 11.5 mph - N/A   Scattered Clouds
6:45 PM 73.4 °F - 50.0 °F 44% 29.98 in 6.2 mi South 8.1 mph - N/A   Scattered Clouds
7:15 PM 73.4 °F - 50.0 °F 44% 29.98 in 6.2 mi South 10.4 mph - N/A   Scattered Clouds
7:45 PM 73.4 °F - 48.2 °F 41% 29.98 in 6.2 mi South 5.8 mph - N/A   Scattered Clouds
8:45 PM 71.6 °F - 51.8 °F 50% 29.98 in 6.2 mi NE 6.9 mph - N/A   Scattered Clouds
9:15 PM 71.6 °F - 51.8 °F 50% 29.98 in 6.2 mi NE 5.8 mph - N/A   Scattered Clouds
9:45 PM 68.0 °F - 51.8 °F 56% 30.01 in 6.2 mi SE 2.3 mph - N/A   Scattered Clouds
10:15 PM 68.0 °F - 51.8 °F 56% 30.01 in 6.2 mi SSW 1.2 mph - N/A   Partly Cloudy
10:45 PM 68.0 °F - 53.6 °F 60% 30.01 in - SE 1.2 mph - N/A   Clear
11:15 PM 66.2 °F - 53.6 °F 64% 30.01 in - Calm Calm - N/A   Clear